Year,Month,Day,Hour,Minute,Value (Times are PST for temperature in C)
2013,04,24,00,00,10.10
2013,04,24,00,01,10.00
2013,04,24,00,02,10.00
2013,04,24,00,03,9.90
2013,04,24,00,04,9.90
2013,04,24,00,05,9.80
2013,04,24,00,06,9.80
2013,04,24,00,07,9.70
2013,04,24,00,08,9.70
2013,04,24,00,09,9.70
2013,04,24,00,10,9.70
2013,04,24,00,11,9.70
2013,04,24,00,12,9.60
2013,04,24,00,13,9.60
2013,04,24,00,14,9.60
2013,04,24,00,15,9.60
2013,04,24,00,16,9.60
2013,04,24,00,17,9.60
2013,04,24,00,18,9.60
2013,04,24,00,19,9.60
2013,04,24,00,20,9.60
2013,04,24,00,21,9.60
2013,04,24,00,22,9.60
2013,04,24,00,23,9.60
2013,04,24,00,24,9.60
2013,04,24,00,25,9.50
2013,04,24,00,26,9.50
2013,04,24,00,27,9.50
2013,04,24,00,28,9.50
2013,04,24,00,29,9.50
2013,04,24,00,30,9.60
2013,04,24,00,31,9.60
2013,04,24,00,32,9.60
2013,04,24,00,33,9.60
2013,04,24,00,34,9.60
2013,04,24,00,35,9.60
2013,04,24,00,36,9.60
2013,04,24,00,37,9.60
2013,04,24,00,38,9.60
2013,04,24,00,39,9.60
2013,04,24,00,40,9.60
2013,04,24,00,41,9.60
2013,04,24,00,42,9.60
2013,04,24,00,43,9.60
2013,04,24,00,44,9.60
2013,04,24,00,45,9.60
2013,04,24,00,46,9.60
2013,04,24,00,47,9.60
2013,04,24,00,48,9.60
2013,04,24,00,49,9.60
2013,04,24,00,50,9.60
2013,04,24,00,51,9.60
2013,04,24,00,52,9.60
2013,04,24,00,53,9.60
2013,04,24,00,54,9.70
2013,04,24,00,55,9.70
2013,04,24,00,56,9.70
2013,04,24,00,57,9.70
2013,04,24,00,58,9.70
2013,04,24,00,59,9.70
2013,04,24,01,00,9.70
2013,04,24,01,01,9.70
2013,04,24,01,02,9.70
2013,04,24,01,03,9.70
2013,04,24,01,04,9.70
2013,04,24,01,05,9.70
2013,04,24,01,06,9.70
2013,04,24,01,07,9.70
2013,04,24,01,08,9.60
2013,04,24,01,09,9.60
2013,04,24,01,10,9.60
2013,04,24,01,11,9.60
2013,04,24,01,12,9.60
2013,04,24,01,13,9.50
2013,04,24,01,14,9.50
2013,04,24,01,15,9.40
2013,04,24,01,16,9.40
2013,04,24,01,17,9.30
2013,04,24,01,18,9.30
2013,04,24,01,19,9.30
2013,04,24,01,20,9.30
2013,04,24,01,21,9.40
2013,04,24,01,22,9.40
2013,04,24,01,23,9.30
2013,04,24,01,24,9.30
2013,04,24,01,25,9.30
2013,04,24,01,26,9.30
2013,04,24,01,27,9.30
2013,04,24,01,28,9.30
2013,04,24,01,29,9.30
2013,04,24,01,30,9.20
2013,04,24,01,31,9.20
2013,04,24,01,32,9.20
2013,04,24,01,33,9.20
2013,04,24,01,34,9.20
2013,04,24,01,35,9.20
2013,04,24,01,36,9.20
2013,04,24,01,37,9.20
2013,04,24,01,38,9.10
2013,04,24,01,39,9.10
2013,04,24,01,40,9.10
2013,04,24,01,41,9.10
2013,04,24,01,42,9.10
2013,04,24,01,43,9.10
2013,04,24,01,44,9.00
2013,04,24,01,45,9.00
2013,04,24,01,46,9.00
2013,04,24,01,47,8.90
2013,04,24,01,48,9.00
2013,04,24,01,49,9.10
2013,04,24,01,50,9.10
2013,04,24,01,51,9.10
2013,04,24,01,52,9.00
2013,04,24,01,53,8.90
2013,04,24,01,54,8.90
2013,04,24,01,55,8.90
2013,04,24,01,56,9.00
2013,04,24,01,57,9.00
2013,04,24,01,58,9.10
2013,04,24,01,59,9.10
2013,04,24,02,00,9.10
2013,04,24,02,01,9.10
2013,04,24,02,02,9.20
2013,04,24,02,03,9.20
2013,04,24,02,04,9.20
2013,04,24,02,05,9.20
2013,04,24,02,06,9.20
2013,04,24,02,07,9.20
2013,04,24,02,08,9.20
2013,04,24,02,09,9.20
2013,04,24,02,10,9.30
2013,04,24,02,11,9.50
2013,04,24,02,12,9.50
2013,04,24,02,13,9.60
2013,04,24,02,14,9.60
2013,04,24,02,15,9.60
2013,04,24,02,16,9.50
2013,04,24,02,17,9.40
2013,04,24,02,18,9.40
2013,04,24,02,19,9.50
2013,04,24,02,20,9.50
2013,04,24,02,21,9.60
2013,04,24,02,22,9.60
2013,04,24,02,23,9.60
2013,04,24,02,24,9.60
2013,04,24,02,25,9.60
2013,04,24,02,26,9.60
2013,04,24,02,27,9.60
2013,04,24,02,28,9.70
2013,04,24,02,29,9.70
2013,04,24,02,30,9.70
2013,04,24,02,31,9.70
2013,04,24,02,32,9.80
2013,04,24,02,33,9.80
2013,04,24,02,34,9.70
2013,04,24,02,35,9.60
2013,04,24,02,36,9.60
2013,04,24,02,37,9.50
2013,04,24,02,38,9.50
2013,04,24,02,39,9.50
2013,04,24,02,40,9.50
2013,04,24,02,41,9.50
2013,04,24,02,42,9.50
2013,04,24,02,43,9.60
2013,04,24,02,44,9.60
2013,04,24,02,45,9.60
2013,04,24,02,46,9.70
2013,04,24,02,47,9.70
2013,04,24,02,48,9.70
2013,04,24,02,49,9.70
2013,04,24,02,50,9.70
2013,04,24,02,51,9.70
2013,04,24,02,52,9.70
2013,04,24,02,53,9.70
2013,04,24,02,54,9.70
2013,04,24,02,55,9.80
2013,04,24,02,56,9.80
2013,04,24,02,57,9.80
2013,04,24,02,58,9.80
2013,04,24,02,59,9.90
2013,04,24,03,00,9.90
2013,04,24,03,01,9.90
2013,04,24,03,02,9.90
2013,04,24,03,03,9.90
2013,04,24,03,04,9.80
2013,04,24,03,05,9.80
2013,04,24,03,06,9.80
2013,04,24,03,07,9.80
2013,04,24,03,08,9.80
2013,04,24,03,09,9.70
2013,04,24,03,10,9.60
2013,04,24,03,11,9.60
2013,04,24,03,12,9.50
2013,04,24,03,13,9.50
2013,04,24,03,14,9.50
2013,04,24,03,15,9.50
2013,04,24,03,16,9.50
2013,04,24,03,17,9.50
2013,04,24,03,18,9.40
2013,04,24,03,19,9.40
2013,04,24,03,20,9.30
2013,04,24,03,21,9.20
2013,04,24,03,22,9.20
2013,04,24,03,23,9.20
2013,04,24,03,24,9.20
2013,04,24,03,25,9.20
2013,04,24,03,26,9.30
2013,04,24,03,27,9.40
2013,04,24,03,28,9.50
2013,04,24,03,29,9.50
2013,04,24,03,30,9.60
2013,04,24,03,31,9.70
2013,04,24,03,32,9.70
2013,04,24,03,33,9.80
2013,04,24,03,34,9.80
2013,04,24,03,35,9.80
2013,04,24,03,36,9.80
2013,04,24,03,37,9.90
2013,04,24,03,38,9.90
2013,04,24,03,39,9.90
2013,04,24,03,40,9.80
2013,04,24,03,41,9.80
2013,04,24,03,42,9.80
2013,04,24,03,43,9.80
2013,04,24,03,44,9.80
2013,04,24,03,45,9.80
2013,04,24,03,46,9.80
2013,04,24,03,47,9.80
2013,04,24,03,48,9.70
2013,04,24,03,49,9.60
2013,04,24,03,50,9.50
2013,04,24,03,51,9.40
2013,04,24,03,52,9.30
2013,04,24,03,53,9.20
2013,04,24,03,54,9.20
2013,04,24,03,55,9.20
2013,04,24,03,56,9.20
2013,04,24,03,57,9.20
2013,04,24,03,58,9.10
2013,04,24,03,59,9.20
2013,04,24,04,00,9.10
2013,04,24,04,01,9.10
2013,04,24,04,02,9.10
2013,04,24,04,03,9.10
2013,04,24,04,04,9.10
2013,04,24,04,05,9.20
2013,04,24,04,06,9.30
2013,04,24,04,07,9.30
2013,04,24,04,08,9.40
2013,04,24,04,09,9.50
2013,04,24,04,10,9.60
2013,04,24,04,11,9.70
2013,04,24,04,12,9.70
2013,04,24,04,13,9.70
2013,04,24,04,14,9.70
2013,04,24,04,15,9.60
2013,04,24,04,16,9.60
2013,04,24,04,17,9.60
2013,04,24,04,18,9.60
2013,04,24,04,19,9.60
2013,04,24,04,20,9.60
2013,04,24,04,21,9.60
2013,04,24,04,22,9.60
2013,04,24,04,23,9.50
2013,04,24,04,24,9.50
2013,04,24,04,25,9.50
2013,04,24,04,26,9.40
2013,04,24,04,27,9.40
2013,04,24,04,28,9.40
2013,04,24,04,29,9.40
2013,04,24,04,30,9.40
2013,04,24,04,31,9.50
2013,04,24,04,32,9.50
2013,04,24,04,33,9.50
2013,04,24,04,34,9.60
2013,04,24,04,35,9.60
2013,04,24,04,36,9.60
2013,04,24,04,37,9.60
2013,04,24,04,38,9.70
2013,04,24,04,39,9.70
2013,04,24,04,40,9.70
2013,04,24,04,41,9.70
2013,04,24,04,42,9.70
2013,04,24,04,43,9.70
2013,04,24,04,44,9.80
2013,04,24,04,45,9.80
2013,04,24,04,46,9.80
2013,04,24,04,47,9.70
2013,04,24,04,48,9.70
2013,04,24,04,49,9.80
2013,04,24,04,50,9.80
2013,04,24,04,51,9.90
2013,04,24,04,52,10.00
2013,04,24,04,53,10.10
2013,04,24,04,54,10.20
2013,04,24,04,55,10.20
2013,04,24,04,56,10.30
2013,04,24,04,57,10.30
2013,04,24,04,58,10.30
2013,04,24,04,59,10.20
2013,04,24,05,00,10.10
2013,04,24,05,01,9.90
2013,04,24,05,02,9.80
2013,04,24,05,03,9.80
2013,04,24,05,04,9.80
2013,04,24,05,05,9.70
2013,04,24,05,06,9.50
2013,04,24,05,07,9.30
2013,04,24,05,08,9.20
2013,04,24,05,09,9.10
2013,04,24,05,10,9.10
2013,04,24,05,11,8.90
2013,04,24,05,12,8.90
2013,04,24,05,13,8.90
2013,04,24,05,14,8.80
2013,04,24,05,15,8.70
2013,04,24,05,16,8.70
2013,04,24,05,17,8.70
2013,04,24,05,18,8.80
2013,04,24,05,19,8.80
2013,04,24,05,20,8.80
2013,04,24,05,21,8.70
2013,04,24,05,22,8.70
2013,04,24,05,23,8.60
2013,04,24,05,24,8.50
2013,04,24,05,25,8.40
2013,04,24,05,26,8.20
2013,04,24,05,27,8.00
2013,04,24,05,28,7.80
2013,04,24,05,29,7.80
2013,04,24,05,30,7.90
2013,04,24,05,31,8.00
2013,04,24,05,32,8.10
2013,04,24,05,33,8.10
2013,04,24,05,34,8.30
2013,04,24,05,35,8.50
2013,04,24,05,36,8.60
2013,04,24,05,37,8.70
2013,04,24,05,38,8.80
2013,04,24,05,39,8.80
2013,04,24,05,40,8.80
2013,04,24,05,41,8.80
2013,04,24,05,42,8.90
2013,04,24,05,43,8.90
2013,04,24,05,44,8.80
2013,04,24,05,45,8.80
2013,04,24,05,46,8.80
2013,04,24,05,47,8.60
2013,04,24,05,48,8.30
2013,04,24,05,49,8.00
2013,04,24,05,50,7.80
2013,04,24,05,51,7.60
2013,04,24,05,52,7.40
2013,04,24,05,53,7.30
2013,04,24,05,54,7.30
2013,04,24,05,55,7.30
2013,04,24,05,56,7.50
2013,04,24,05,57,7.60
2013,04,24,05,58,7.50
2013,04,24,05,59,7.40
2013,04,24,06,00,7.40
2013,04,24,06,01,7.30
2013,04,24,06,02,7.30
2013,04,24,06,03,7.30
2013,04,24,06,04,7.30
2013,04,24,06,05,7.40
2013,04,24,06,06,7.40
2013,04,24,06,07,7.60
2013,04,24,06,08,7.80
2013,04,24,06,09,7.80
2013,04,24,06,10,8.00
2013,04,24,06,11,8.00
2013,04,24,06,12,8.00
2013,04,24,06,13,8.10
2013,04,24,06,14,8.10
2013,04,24,06,15,8.20
2013,04,24,06,16,8.20
2013,04,24,06,17,8.30
2013,04,24,06,18,8.30
2013,04,24,06,19,8.30
2013,04,24,06,20,8.30
2013,04,24,06,21,8.30
2013,04,24,06,22,8.30
2013,04,24,06,23,8.50
2013,04,24,06,24,8.60
2013,04,24,06,25,8.60
2013,04,24,06,26,8.60
2013,04,24,06,27,8.60
2013,04,24,06,28,8.80
2013,04,24,06,29,8.90
2013,04,24,06,30,9.00
2013,04,24,06,31,9.00
2013,04,24,06,32,8.90
2013,04,24,06,33,8.80
2013,04,24,06,34,8.80
2013,04,24,06,35,8.90
2013,04,24,06,36,9.00
2013,04,24,06,37,9.10
2013,04,24,06,38,9.20
2013,04,24,06,39,9.30
2013,04,24,06,40,9.30
2013,04,24,06,41,9.30
2013,04,24,06,42,9.30
2013,04,24,06,43,9.30
2013,04,24,06,44,9.30
2013,04,24,06,45,9.30
2013,04,24,06,46,9.30
2013,04,24,06,47,9.30
2013,04,24,06,48,9.30
2013,04,24,06,49,9.30
2013,04,24,06,50,9.30
2013,04,24,06,51,9.30
2013,04,24,06,52,9.30
2013,04,24,06,53,9.30
2013,04,24,06,54,9.20
2013,04,24,06,55,9.20
2013,04,24,06,56,9.10
2013,04,24,06,57,9.10
2013,04,24,06,58,9.10
2013,04,24,06,59,9.10
2013,04,24,07,00,9.10
2013,04,24,07,01,9.10
2013,04,24,07,02,9.00
2013,04,24,07,03,8.90
2013,04,24,07,04,8.90
2013,04,24,07,05,8.80
2013,04,24,07,06,8.80
2013,04,24,07,07,8.70
2013,04,24,07,08,8.60
2013,04,24,07,09,8.60
2013,04,24,07,10,8.50
2013,04,24,07,11,8.50
2013,04,24,07,12,8.50
2013,04,24,07,13,8.50
2013,04,24,07,14,8.50
2013,04,24,07,15,8.50
2013,04,24,07,16,8.50
2013,04,24,07,17,8.60
2013,04,24,07,18,8.60
2013,04,24,07,19,8.60
2013,04,24,07,20,8.60
2013,04,24,07,21,8.70
2013,04,24,07,22,8.70
2013,04,24,07,23,8.70
2013,04,24,07,24,8.70
2013,04,24,07,25,8.70
2013,04,24,07,26,8.70
2013,04,24,07,27,8.60
2013,04,24,07,28,8.60
2013,04,24,07,29,8.60
2013,04,24,07,30,8.60
2013,04,24,07,31,8.50
2013,04,24,07,32,8.50
2013,04,24,07,33,8.50
2013,04,24,07,34,8.40
2013,04,24,07,35,8.40
2013,04,24,07,36,8.40
2013,04,24,07,37,8.40
2013,04,24,07,38,8.40
2013,04,24,07,39,8.40
2013,04,24,07,40,8.30
2013,04,24,07,41,8.30
2013,04,24,07,42,8.30
2013,04,24,07,43,8.40
2013,04,24,07,44,8.40
2013,04,24,07,45,8.40
2013,04,24,07,46,8.40
2013,04,24,07,47,8.40
2013,04,24,07,48,8.40
2013,04,24,07,49,8.40
2013,04,24,07,50,8.40
2013,04,24,07,51,8.40
2013,04,24,07,52,8.50
2013,04,24,07,53,8.50
2013,04,24,07,54,8.60
2013,04,24,07,55,8.60
2013,04,24,07,56,8.70
2013,04,24,07,57,8.70
2013,04,24,07,58,8.70
2013,04,24,07,59,8.80
2013,04,24,08,00,8.80
2013,04,24,08,01,8.80
2013,04,24,08,02,8.90
2013,04,24,08,03,8.90
2013,04,24,08,04,9.00
2013,04,24,08,05,9.10
2013,04,24,08,06,9.10
2013,04,24,08,07,9.20
2013,04,24,08,08,9.20
2013,04,24,08,09,9.20
2013,04,24,08,10,9.30
2013,04,24,08,11,9.30
2013,04,24,08,12,9.30
2013,04,24,08,13,9.30
2013,04,24,08,14,9.30
2013,04,24,08,15,9.40
2013,04,24,08,16,9.40
2013,04,24,08,17,9.50
2013,04,24,08,18,9.60
2013,04,24,08,19,9.70
2013,04,24,08,20,9.70
2013,04,24,08,21,9.80
2013,04,24,08,22,9.90
2013,04,24,08,23,10.00
2013,04,24,08,24,10.10
2013,04,24,08,25,10.20
2013,04,24,08,26,10.30
2013,04,24,08,27,10.40
2013,04,24,08,28,10.50
2013,04,24,08,29,10.80
2013,04,24,08,30,10.90
2013,04,24,08,31,11.10
2013,04,24,08,32,11.20
2013,04,24,08,33,11.30
2013,04,24,08,34,11.30
2013,04,24,08,35,11.40
2013,04,24,08,36,11.50
2013,04,24,08,37,11.60
2013,04,24,08,38,11.60
2013,04,24,08,39,11.60
2013,04,24,08,40,11.60
2013,04,24,08,41,11.60
2013,04,24,08,42,11.60
2013,04,24,08,43,11.60
2013,04,24,08,44,11.60
2013,04,24,08,45,11.60
2013,04,24,08,46,11.50
2013,04,24,08,47,11.50
2013,04,24,08,48,11.50
2013,04,24,08,49,11.50
2013,04,24,08,50,11.50
2013,04,24,08,51,11.60
2013,04,24,08,52,11.60
2013,04,24,08,53,11.60
2013,04,24,08,54,11.60
2013,04,24,08,55,11.60
2013,04,24,08,56,11.60
2013,04,24,08,57,11.70
2013,04,24,08,58,11.80
2013,04,24,08,59,11.90
2013,04,24,09,00,11.90
2013,04,24,09,01,12.10
2013,04,24,09,02,12.20
2013,04,24,09,03,12.30
2013,04,24,09,04,12.50
2013,04,24,09,05,12.50
2013,04,24,09,06,12.50
2013,04,24,09,07,12.40
2013,04,24,09,08,12.30
2013,04,24,09,09,12.20
2013,04,24,09,10,12.00
2013,04,24,09,11,11.90
2013,04,24,09,12,11.70
2013,04,24,09,13,11.70
2013,04,24,09,14,11.60
2013,04,24,09,15,11.60
2013,04,24,09,16,11.50
2013,04,24,09,17,11.40
2013,04,24,09,18,11.30
2013,04,24,09,19,11.30
2013,04,24,09,20,11.20
2013,04,24,09,21,11.20
2013,04,24,09,22,11.30
2013,04,24,09,23,11.30
2013,04,24,09,24,11.50
2013,04,24,09,25,11.60
2013,04,24,09,26,11.70
2013,04,24,09,27,11.80
2013,04,24,09,28,11.80
2013,04,24,09,29,11.90
2013,04,24,09,30,11.90
2013,04,24,09,31,11.90
2013,04,24,09,32,11.80
2013,04,24,09,33,11.80
2013,04,24,09,34,11.70
2013,04,24,09,35,11.70
2013,04,24,09,36,11.70
2013,04,24,09,37,11.70
2013,04,24,09,38,11.70
2013,04,24,09,39,11.70
2013,04,24,09,40,11.80
2013,04,24,09,41,11.80
2013,04,24,09,42,11.90
2013,04,24,09,43,11.90
2013,04,24,09,44,12.00
2013,04,24,09,45,12.10
2013,04,24,09,46,12.20
2013,04,24,09,47,12.30
2013,04,24,09,48,12.40
2013,04,24,09,49,12.40
2013,04,24,09,50,12.50
2013,04,24,09,51,12.50
2013,04,24,09,52,12.60
2013,04,24,09,53,12.50
2013,04,24,09,54,12.50
2013,04,24,09,55,12.50
2013,04,24,09,56,12.40
2013,04,24,09,57,12.40
2013,04,24,09,58,12.50
2013,04,24,09,59,12.50
2013,04,24,10,00,12.60
2013,04,24,10,01,12.60
2013,04,24,10,02,12.60
2013,04,24,10,03,12.60
2013,04,24,10,04,12.60
2013,04,24,10,05,12.60
2013,04,24,10,06,12.60
2013,04,24,10,07,12.60
2013,04,24,10,08,12.70
2013,04,24,10,09,12.70
2013,04,24,10,10,12.80
2013,04,24,10,11,12.80
2013,04,24,10,12,12.80
2013,04,24,10,13,12.80
2013,04,24,10,14,12.90
2013,04,24,10,15,12.90
2013,04,24,10,16,12.90
2013,04,24,10,17,12.90
2013,04,24,10,18,12.90
2013,04,24,10,19,13.00
2013,04,24,10,20,12.90
2013,04,24,10,21,12.90
2013,04,24,10,22,12.90
2013,04,24,10,23,12.80
2013,04,24,10,24,12.80
2013,04,24,10,25,12.80
2013,04,24,10,26,12.80
2013,04,24,10,27,12.80
2013,04,24,10,28,12.80
2013,04,24,10,29,12.80
2013,04,24,10,30,12.80
2013,04,24,10,31,12.70
2013,04,24,10,32,12.70
2013,04,24,10,33,12.60
2013,04,24,10,34,12.50
2013,04,24,10,35,12.50
2013,04,24,10,36,12.40
2013,04,24,10,37,12.40
2013,04,24,10,38,12.40
2013,04,24,10,39,12.40
2013,04,24,10,40,12.40
2013,04,24,10,41,12.40
2013,04,24,10,42,12.40
2013,04,24,10,43,12.50
2013,04,24,10,44,12.50
2013,04,24,10,45,12.50
2013,04,24,10,46,12.40
2013,04,24,10,47,12.30
2013,04,24,10,48,12.10
2013,04,24,10,49,12.00
2013,04,24,10,50,11.90
2013,04,24,10,51,11.90
2013,04,24,10,52,11.90
2013,04,24,10,53,11.90
2013,04,24,10,54,11.90
2013,04,24,10,55,11.90
2013,04,24,10,56,11.90
2013,04,24,10,57,12.00
2013,04,24,10,58,12.00
2013,04,24,10,59,12.10
2013,04,24,11,00,12.10
2013,04,24,11,01,12.20
2013,04,24,11,02,12.20
2013,04,24,11,03,12.20
2013,04,24,11,04,12.20
2013,04,24,11,05,12.30
2013,04,24,11,06,12.40
2013,04,24,11,07,12.50
2013,04,24,11,08,12.60
2013,04,24,11,09,12.80
2013,04,24,11,10,12.80
2013,04,24,11,11,12.80
2013,04,24,11,12,12.70
2013,04,24,11,13,12.60
2013,04,24,11,14,12.60
2013,04,24,11,15,12.60
2013,04,24,11,16,12.60
2013,04,24,11,17,12.60
2013,04,24,11,18,12.50
2013,04,24,11,19,12.60
2013,04,24,11,20,12.60
2013,04,24,11,21,12.70
2013,04,24,11,22,12.70
2013,04,24,11,23,12.70
2013,04,24,11,24,12.60
2013,04,24,11,25,12.50
2013,04,24,11,26,12.40
2013,04,24,11,27,12.30
2013,04,24,11,28,12.20
2013,04,24,11,29,12.10
2013,04,24,11,30,12.10
2013,04,24,11,31,12.00
2013,04,24,11,32,12.00
2013,04,24,11,33,12.00
2013,04,24,11,34,12.10
2013,04,24,11,35,12.20
2013,04,24,11,36,12.20
2013,04,24,11,37,12.20
2013,04,24,11,38,12.20
2013,04,24,11,39,12.10
2013,04,24,11,40,12.00
2013,04,24,11,41,11.90
2013,04,24,11,42,11.90
2013,04,24,11,43,11.90
2013,04,24,11,44,11.90
2013,04,24,11,45,11.90
2013,04,24,11,46,11.90
2013,04,24,11,47,11.90
2013,04,24,11,48,11.80
2013,04,24,11,49,11.80
2013,04,24,11,50,11.80
2013,04,24,11,51,11.80
2013,04,24,11,52,11.80
2013,04,24,11,53,11.80
2013,04,24,11,54,11.80
2013,04,24,11,55,11.90
2013,04,24,11,56,11.90
2013,04,24,11,57,11.80
2013,04,24,11,58,11.80
2013,04,24,11,59,11.80
2013,04,24,12,00,11.80
2013,04,24,12,01,11.80
2013,04,24,12,02,11.80
2013,04,24,12,03,11.80
2013,04,24,12,04,11.90
2013,04,24,12,05,12.10
2013,04,24,12,06,12.10
2013,04,24,12,07,12.20
2013,04,24,12,08,12.20
2013,04,24,12,09,12.30
2013,04,24,12,10,12.30
2013,04,24,12,11,12.40
2013,04,24,12,12,12.50
2013,04,24,12,13,12.60
2013,04,24,12,14,12.60
2013,04,24,12,15,12.70
2013,04,24,12,16,12.80
2013,04,24,12,17,12.80
2013,04,24,12,18,12.80
2013,04,24,12,19,12.80
2013,04,24,12,20,12.70
2013,04,24,12,21,12.60
2013,04,24,12,22,12.50
2013,04,24,12,23,12.40
2013,04,24,12,24,12.40
2013,04,24,12,25,12.40
2013,04,24,12,26,12.40
2013,04,24,12,27,12.40
2013,04,24,12,28,12.50
2013,04,24,12,29,12.50
2013,04,24,12,30,12.70
2013,04,24,12,31,12.80
2013,04,24,12,32,12.90
2013,04,24,12,33,13.00
2013,04,24,12,34,13.10
2013,04,24,12,35,13.20
2013,04,24,12,36,13.30
2013,04,24,12,37,13.40
2013,04,24,12,38,13.40
2013,04,24,12,39,13.50
2013,04,24,12,40,13.60
2013,04,24,12,41,13.70
2013,04,24,12,42,13.70
2013,04,24,12,43,13.70
2013,04,24,12,44,13.70
2013,04,24,12,45,13.80
2013,04,24,12,46,13.90
2013,04,24,12,47,14.00
2013,04,24,12,48,14.10
2013,04,24,12,49,14.10
2013,04,24,12,50,14.10
2013,04,24,12,51,14.10
2013,04,24,12,52,14.10
2013,04,24,12,53,14.10
2013,04,24,12,54,14.10
2013,04,24,12,55,14.10
2013,04,24,12,56,14.10
2013,04,24,12,57,14.10
2013,04,24,12,58,14.10
2013,04,24,12,59,14.10
2013,04,24,13,00,14.10
2013,04,24,13,01,14.00
2013,04,24,13,02,13.80
2013,04,24,13,03,13.60
2013,04,24,13,04,13.60
2013,04,24,13,05,13.60
2013,04,24,13,06,13.70
2013,04,24,13,07,13.70
2013,04,24,13,08,13.80
2013,04,24,13,09,13.80
2013,04,24,13,10,13.80
2013,04,24,13,11,13.80
2013,04,24,13,12,13.80
2013,04,24,13,13,13.70
2013,04,24,13,14,13.60
2013,04,24,13,15,13.50
2013,04,24,13,16,13.50
2013,04,24,13,17,13.40
2013,04,24,13,18,13.30
2013,04,24,13,19,13.30
2013,04,24,13,20,13.20
2013,04,24,13,21,13.20
2013,04,24,13,22,13.20
2013,04,24,13,23,13.10
2013,04,24,13,24,13.10
2013,04,24,13,25,13.10
2013,04,24,13,26,13.00
2013,04,24,13,27,13.00
2013,04,24,13,28,13.00
2013,04,24,13,29,13.00
2013,04,24,13,30,13.00
2013,04,24,13,31,12.90
2013,04,24,13,32,12.90
2013,04,24,13,33,12.90
2013,04,24,13,34,12.90
2013,04,24,13,35,12.90
2013,04,24,13,36,12.90
2013,04,24,13,37,12.90
2013,04,24,13,38,12.90
2013,04,24,13,39,12.90
2013,04,24,13,40,12.80
2013,04,24,13,41,12.80
2013,04,24,13,42,12.80
2013,04,24,13,43,12.70
2013,04,24,13,44,12.80
2013,04,24,13,45,12.70
2013,04,24,13,46,12.70
2013,04,24,13,47,12.60
2013,04,24,13,48,12.50
2013,04,24,13,49,12.40
2013,04,24,13,50,12.40
2013,04,24,13,51,12.30
2013,04,24,13,52,12.30
2013,04,24,13,53,12.20
2013,04,24,13,54,12.20
2013,04,24,13,55,12.20
2013,04,24,13,56,12.20
2013,04,24,13,57,12.20
2013,04,24,13,58,12.20
2013,04,24,13,59,12.20
2013,04,24,14,00,12.20
2013,04,24,14,01,12.20
2013,04,24,14,02,12.30
2013,04,24,14,03,12.40
2013,04,24,14,04,12.50
2013,04,24,14,05,12.60
2013,04,24,14,06,12.80
2013,04,24,14,07,12.90
2013,04,24,14,08,13.10
2013,04,24,14,09,13.20
2013,04,24,14,10,13.40
2013,04,24,14,11,13.40
2013,04,24,14,12,13.40
2013,04,24,14,13,13.30
2013,04,24,14,14,13.30
2013,04,24,14,15,13.30
2013,04,24,14,16,13.20
2013,04,24,14,17,13.30
2013,04,24,14,18,13.30
2013,04,24,14,19,13.30
2013,04,24,14,20,13.30
2013,04,24,14,21,13.30
2013,04,24,14,22,13.30
2013,04,24,14,23,13.20
2013,04,24,14,24,13.30
2013,04,24,14,25,13.40
2013,04,24,14,26,13.50
2013,04,24,14,27,13.60
2013,04,24,14,28,13.60
2013,04,24,14,29,13.60
2013,04,24,14,30,13.70
2013,04,24,14,31,13.70
2013,04,24,14,32,13.70
2013,04,24,14,33,13.80
2013,04,24,14,34,13.80
2013,04,24,14,35,13.80
2013,04,24,14,36,13.90
2013,04,24,14,37,13.90
2013,04,24,14,38,13.90
2013,04,24,14,39,13.80
2013,04,24,14,40,13.80
2013,04,24,14,41,13.80
2013,04,24,14,42,13.90
2013,04,24,14,43,14.00
2013,04,24,14,44,14.10
2013,04,24,14,45,14.20
2013,04,24,14,46,14.30
2013,04,24,14,47,14.30
2013,04,24,14,48,14.40
2013,04,24,14,49,14.50
2013,04,24,14,50,14.60
2013,04,24,14,51,14.70
2013,04,24,14,52,14.80
2013,04,24,14,53,14.70
2013,04,24,14,54,14.70
2013,04,24,14,55,14.60
2013,04,24,14,56,14.60
2013,04,24,14,57,14.60
2013,04,24,14,58,14.60
2013,04,24,14,59,14.80
2013,04,24,15,00,15.00
2013,04,24,15,01,15.20
2013,04,24,15,02,15.30
2013,04,24,15,03,15.40
2013,04,24,15,04,15.30
2013,04,24,15,05,15.10
2013,04,24,15,06,15.00
2013,04,24,15,07,14.80
2013,04,24,15,08,14.70
2013,04,24,15,09,14.70
2013,04,24,15,10,14.80
2013,04,24,15,11,15.00
2013,04,24,15,12,15.10
2013,04,24,15,13,15.10
2013,04,24,15,14,15.00
2013,04,24,15,15,14.80
2013,04,24,15,16,14.70
2013,04,24,15,17,14.60
2013,04,24,15,18,14.60
2013,04,24,15,19,14.60
2013,04,24,15,20,14.60
2013,04,24,15,21,14.70
2013,04,24,15,22,14.70
2013,04,24,15,23,14.80
2013,04,24,15,24,14.90
2013,04,24,15,25,15.00
2013,04,24,15,26,15.10
2013,04,24,15,27,15.10
2013,04,24,15,28,15.10
2013,04,24,15,29,15.10
2013,04,24,15,30,15.00
2013,04,24,15,31,14.90
2013,04,24,15,32,14.90
2013,04,24,15,33,14.90
2013,04,24,15,34,14.90
2013,04,24,15,35,14.90
2013,04,24,15,36,15.00
2013,04,24,15,37,15.10
2013,04,24,15,38,15.10
2013,04,24,15,39,15.20
2013,04,24,15,40,15.10
2013,04,24,15,41,15.00
2013,04,24,15,42,14.80
2013,04,24,15,43,14.80
2013,04,24,15,44,14.70
2013,04,24,15,45,14.50
2013,04,24,15,46,14.40
2013,04,24,15,47,14.30
2013,04,24,15,48,14.20
2013,04,24,15,49,14.10
2013,04,24,15,50,14.00
2013,04,24,15,51,13.90
2013,04,24,15,52,13.90
2013,04,24,15,53,13.90
2013,04,24,15,54,13.90
2013,04,24,15,55,13.90
2013,04,24,15,56,13.90
2013,04,24,15,57,14.00
2013,04,24,15,58,13.90
2013,04,24,15,59,13.80
2013,04,24,16,00,13.80
2013,04,24,16,01,13.80
2013,04,24,16,02,13.80
2013,04,24,16,03,13.70
2013,04,24,16,04,13.70
2013,04,24,16,05,13.70
2013,04,24,16,06,13.70
2013,04,24,16,07,13.80
2013,04,24,16,08,13.90
2013,04,24,16,09,13.90
2013,04,24,16,10,13.90
2013,04,24,16,11,13.90
2013,04,24,16,12,13.80
2013,04,24,16,13,13.90
2013,04,24,16,14,13.90
2013,04,24,16,15,14.00
2013,04,24,16,16,14.10
2013,04,24,16,17,14.20
2013,04,24,16,18,14.20
2013,04,24,16,19,14.10
2013,04,24,16,20,14.10
2013,04,24,16,21,14.10
2013,04,24,16,22,14.10
2013,04,24,16,23,14.10
2013,04,24,16,24,14.10
2013,04,24,16,25,14.10
2013,04,24,16,26,14.10
2013,04,24,16,27,14.10
2013,04,24,16,28,14.10
2013,04,24,16,29,14.00
2013,04,24,16,30,14.00
2013,04,24,16,31,13.90
2013,04,24,16,32,13.90
2013,04,24,16,33,13.80
2013,04,24,16,34,13.70
2013,04,24,16,35,13.70
2013,04,24,16,36,13.70
2013,04,24,16,37,13.80
2013,04,24,16,38,13.90
2013,04,24,16,39,13.90
2013,04,24,16,40,14.00
2013,04,24,16,41,14.00
2013,04,24,16,42,14.00
2013,04,24,16,43,14.00
2013,04,24,16,44,14.00
2013,04,24,16,45,14.00
2013,04,24,16,46,14.00
2013,04,24,16,47,14.00
2013,04,24,16,48,14.00
2013,04,24,16,49,14.10
2013,04,24,16,50,14.10
2013,04,24,16,51,14.00
2013,04,24,16,52,14.00
2013,04,24,16,53,13.90
2013,04,24,16,54,13.90
2013,04,24,16,55,13.90
2013,04,24,16,56,13.90
2013,04,24,16,57,13.90
2013,04,24,16,58,13.90
2013,04,24,16,59,13.90
2013,04,24,17,00,13.90
2013,04,24,17,01,13.90
2013,04,24,17,02,13.90
2013,04,24,17,03,13.80
2013,04,24,17,04,13.80
2013,04,24,17,05,13.80
2013,04,24,17,06,13.70
2013,04,24,17,07,13.70
2013,04,24,17,08,13.70
2013,04,24,17,09,13.60
2013,04,24,17,10,13.60
2013,04,24,17,11,13.60
2013,04,24,17,12,13.60
2013,04,24,17,13,13.60
2013,04,24,17,14,13.60
2013,04,24,17,15,13.60
2013,04,24,17,16,13.60
2013,04,24,17,17,13.60
2013,04,24,17,18,13.60
2013,04,24,17,19,13.60
2013,04,24,17,20,13.70
2013,04,24,17,21,13.70
2013,04,24,17,22,13.80
2013,04,24,17,23,13.80
2013,04,24,17,24,13.90
2013,04,24,17,25,14.00
2013,04,24,17,26,14.00
2013,04,24,17,27,14.00
2013,04,24,17,28,14.00
2013,04,24,17,29,14.10
2013,04,24,17,30,14.10
2013,04,24,17,31,14.20
2013,04,24,17,32,14.20
2013,04,24,17,33,14.20
2013,04,24,17,34,14.30
2013,04,24,17,35,14.40
2013,04,24,17,36,14.50
2013,04,24,17,37,14.60
2013,04,24,17,38,14.50
2013,04,24,17,39,14.40
2013,04,24,17,40,14.40